Location: *
(55.5817°S, 142.4781°W)
Time: 07:06:29
(UTC+00:00)

Cosmos 2298 Rocket - Pass Details

Date: 29 April 2025
Orbit: 773 x 782 km, 74.0° (Epoch: 23 May)

Event Time Altitude Azimuth Distance (km) Brightness Sun altitude
Exits shadow 14:45:51 29° 293° (WNW) 1,425 4.9 -17.9°
Maximum altitude 14:48:19 50° 234° (SW) 1,006 4.3 -17.5°
Drops below altitude 10° 14:53:34 10° 158° (SSE) 2,366 6.8 -16.8°
Sets 14:56:03 0° 152° (SSE) 3,298 7.6 -16.4°
